カタログに戻る

FENGYUN 1C DEB

運用中SSO
NORAD 31475·DEBRIS·🇨🇳 China

打ち上げ May 10, 1999 から Taiyuan Satellite Launch Center

Loading…

次のパス (今後24時間)

TLE

経年Source: Space-Track

元期: Sep 7, 2026, 00:13 UTC

1 31475U 99025BVP 26250.00907311  .00001870  00000-0  47760-3 0  9994
2 31475  98.9144 154.8267 0208579  34.8097 326.6532 14.39578743999377

AllMySatでFENGYUN 1C DEBをリアルタイム追跡

Download on the App Store